Home > Weather > Fairbanks > Past weeks

Flag for U.S.A. Weather for the Past 2 Weeks in Fairbanks, Alaska, U.S.A.

Now
4 °F

Clear.


Feels Like: 4 °F
Forecast: -1 / 9 °F
Wind: No wind

Location: Wainwright U. S. Army Airfield

Current Time: Feb 11, 2016 at 11:13:39 PM

Latest Report: Feb 11, 2016 at 10:58 PM


Visibility: 10 mi

Pressure: 29.62 "Hg

Humidity: 85%

Dew point: 0 °F

Location of FairbanksLocation

Historic Weather in Fairbanks — Graph

°F

Fairbanks Temperature Yesterday

Maximum temperature yesterday: 15 °F (at 2:58 PM)
Minimum temperature yesterday: -16 °F (at 7:55 AM)
Average temperature yesterday: -6 °F

High & Low Weather Summary for the Past Weeks

 TemperatureHumidityPressure
High28 °F (Jan 27, 9:58 PM)100% (Jan 30, 11:03 AM)30.23 "Hg (Jan 30, 11:03 AM)
Low-16 °F (Feb 10, 7:55 AM)59% (Feb 5, 1:58 PM)28.79 "Hg (Jan 28, 3:58 AM)
Average4 °F83%29.71 "Hg
* Reported Jan 27 9:58 PM — Feb 11 9:58 PM, Fairbanks, Weather by CustomWeather, © 2016

Note: Actual official high and low records may vary slightly from our data, if they occured in-between our weather recording intervals... More about our weather records

Advertising

Fairbanks Weather History for the Previous 24 Hours

 ConditionsComfort  
Time TempWeatherWind HumidityBarometerVisibility
9:58 PM
Thu, Feb 11
5 °FClear.No wind83%29.62 "Hg10 mi
8:58 PM5 °FClear.No wind82%29.62 "Hg10 mi
7:58 PM6 °FClear.No wind83%29.62 "Hg10 mi
6:58 PM5 °FClear.No wind80%29.65 "Hg10 mi
5:58 PM8 °FClear.2 mph79%29.65 "Hg10 mi
4:58 PM8 °FSunny.3 mph79%29.65 "Hg9 mi
3:58 PM11 °FSunny.No wind80%29.65 "Hg10 mi
2:58 PM14 °FSunny.No wind78%29.64 "Hg10 mi
1:58 PM13 °FBroken clouds.No wind78%29.65 "Hg10 mi
12:58 PM11 °FBroken clouds.No wind81%29.66 "Hg25 mi
11:58 AM11 °FPartly sunny.1 mph83%29.66 "Hg10 mi
10:58 AM14 °FBroken clouds.1 mph86%29.66 "Hg10 mi
9:58 AM14 °FPartly sunny.2 mph85%29.66 "Hg10 mi
8:58 AM13 °FOvercast.No wind88%29.66 "Hg10 mi
7:58 AM13 °FLight snow. Overcast.No wind88%29.67 "Hg7 mi
6:58 AM12 °FLight snow. Mostly cloudy.No wind87%29.68 "Hg8 mi
5:58 AM11 °FOvercast.No wind84%29.68 "Hg10 mi
4:58 AM8 °FMostly cloudy.No wind87%29.70 "Hg10 mi
3:58 AM8 °FOvercast.No wind84%29.69 "Hg10 mi
2:58 AM9 °FOvercast.1 mph84%29.68 "Hg10 mi
1:58 AM8 °FMostly cloudy.No wind85%29.70 "Hg9 mi
12:58 AM6 °FOvercast.3 mph86%29.70 "Hg10 mi
11:58 PM
Wed, Feb 10
2 °FOvercast.No wind86%29.72 "Hg10 mi
Weather by CustomWeather, © 2016

See weather overviewHow to use our weather pages